Regional Weather Roundup
Issued by NWS

Home | Current Version | Previous Version | Graphics & Text | Print | Product List | Glossary On
Versions: 1 2 3 4 5 6 7 8 9 10 11 12 13 14 15 16 17 18 19 20 21 22 23 24 25 26 27 28 29 30 31 32 33 34 35 36 37 38 39 40 41 42 43 44 45 46 47 48 49 50
507
ASUS43 KBIS 060402
RWRND

NORTH DAKOTA REGIONAL WEATHER ROUNDUP
NATIONAL WEATHER SERVICE BISMARCK ND
1100 PM CDT THU MAY 05 2016

NOTE: "FAIR" INDICATES FEW OR NO CLOUDS BELOW 12,000 FEET WITH NO
SIGNIFICANT WEATHER AND/OR OBSTRUCTIONS TO VISIBILITY.


NDZ001>003-009>011-017-060500-
NORTHWEST NORTH DAKOTA

CITY           SKY/WX    TMP DP  RH WIND       PRES   REMARKS
WILLISTON      CLOUDY    71  39  31 NW13      29.76R
MINOT          PTCLDY    74  39  28 SW7       29.73R
MINOT AFB      CLEAR     67  40  37 SW9       29.71S
$$

NDZ018>021-031>035-040>046-060500-
SOUTHWEST NORTH DAKOTA

CITY           SKY/WX    TMP DP  RH WIND       PRES   REMARKS
BISMARCK       CLOUDY    63  47  55 SE5       29.79R
DICKINSON      CLEAR     58  40  51 S10       29.80R
GARRISON         N/A     62  40  44 CALM      29.77R
HETTINGER ARPT CLEAR     60  48  64 CALM      29.85R
$$

NDZ004>008-012>016-024-026-027-054-060500-
NORTHEAST NORTH DAKOTA

CITY           SKY/WX    TMP DP  RH WIND       PRES   REMARKS
GRAND FORKS    PTCLDY    60  41  49 SW8       29.71S
GRND FRKS AFB  PTCLDY    66  39  37 SW9       29.72S
DEVILS LAKE    CLOUDY    71  43  36 SW13      29.74S
$$

NDZ022-023-025-028>030-036>039-047>053-060500-
SOUTHEAST NORTH DAKOTA

CITY           SKY/WX    TMP DP  RH WIND       PRES   REMARKS
FARGO          CLEAR     72  40  31 S13       29.76S
JAMESTOWN      CLEAR     71  46  40 SW7       29.79R
$$





USA.gov is the U.S. government's official web portal to all federal, state and local government web resources and services.